Date String (YYYY-MM-DD hh:mm:ss) UTC,Instrument flags,Ambient pressure (hPa),Sample flow (lpm),Bypass flow (lpm),Sample temperature (°C),Ambient temperature (°C),ASC tube jacket temperature (°C),LED temperature (°C),Box temperature (°C),Sample RH (%),Span deviation,Mass concentration (μg/m³),Mass concentration (μg/m³),Mass concentration (μg/m³)
DateTimeUTC,F1_M11,P_M11,Q1_M11,Q2_M11,T1_M11,T2_M11,T3_M11,T4_M11,T5_M11,U1_M11,ZSPAN_M11,X0_M11,X2_M11,X1_M11
2022-07-18 02:00:00,,0827.6,4.99,0.00,29.3,28.0,00.0,37.9,31.3,26.1,0000.0,0018.44,0006.70,0005.52
2022-07-18 02:01:00,,0827.6,5.01,0.00,29.3,28.1,00.0,37.9,31.4,26.1,0000.0,0018.48,0006.65,0005.52
2022-07-18 02:02:00,,0827.6,5.00,0.00,29.4,27.7,00.0,37.9,31.3,26.1,0000.0,0018.26,0006.57,0005.50
2022-07-18 02:03:00,,0827.6,4.99,0.00,29.3,27.1,00.0,37.9,31.2,26.2,0000.0,0017.72,0006.54,0005.48
2022-07-18 02:04:00,,0827.7,5.01,0.00,29.3,27.0,00.0,37.9,31.1,26.3,0000.0,0017.11,0006.51,0005.46
2022-07-18 02:05:00,,0827.6,5.00,0.00,29.2,27.1,00.0,37.9,31.0,26.4,0000.0,0016.18,0006.51,0005.45
2022-07-18 02:06:00,,0827.6,5.00,0.00,29.2,27.3,00.0,37.9,31.0,26.4,0000.0,0015.15,0006.47,0005.43
2022-07-18 02:07:00,,0827.6,4.99,0.00,29.2,27.5,00.0,37.9,31.1,26.4,0000.0,0015.54,0006.42,0005.42
2022-07-18 02:08:00,,0827.7,5.00,0.00,29.3,27.7,00.0,37.9,31.2,26.3,0000.0,0016.08,0006.39,0005.40
2022-07-18 02:09:00,,0827.7,5.02,0.00,29.3,28.0,00.0,37.9,31.2,26.2,0000.0,0015.36,0006.35,0005.38
2022-07-18 02:10:00,,0827.7,4.99,0.00,29.3,28.2,00.0,38.0,31.3,26.1,0000.0,0014.91,0006.33,0005.37
2022-07-18 02:11:00,,0827.7,5.01,0.00,29.4,28.1,00.0,37.9,31.4,26.1,0000.0,0015.61,0006.29,0005.35
2022-07-18 02:12:00,,0827.7,4.99,0.00,29.4,27.4,00.0,37.9,31.3,26.1,0000.0,0015.91,0006.32,0005.34
2022-07-18 02:13:00,,0827.7,5.00,0.00,29.3,27.0,00.0,37.9,31.2,26.2,0000.0,0015.30,0006.38,0005.35
2022-07-18 02:14:00,,0827.7,5.00,0.00,29.3,27.0,00.0,37.9,31.1,26.3,0000.0,0015.27,0006.38,0005.37
2022-07-18 02:15:00,,0827.7,5.00,0.00,29.3,27.2,00.0,37.9,31.0,26.5,0000.0,0014.89,0006.40,0005.40
2022-07-18 02:16:00,,0827.7,5.00,0.00,29.2,27.4,00.0,37.9,31.1,26.6,0000.0,0015.12,0006.39,0005.40
2022-07-18 02:17:00,,0827.8,5.00,0.00,29.3,27.6,00.0,37.9,31.1,26.6,0000.0,0015.18,0006.39,0005.43
2022-07-18 02:18:00,,0827.7,4.99,0.00,29.3,27.8,00.0,37.9,31.2,26.6,0000.0,0014.86,0006.43,0005.45
2022-07-18 02:19:00,,0827.7,5.01,0.00,29.3,28.1,00.0,38.0,31.3,26.6,0000.0,0014.34,0006.50,0005.47
2022-07-18 02:20:00,,0827.7,5.00,0.00,29.4,28.2,00.0,38.0,31.4,26.5,0000.0,0014.56,0006.58,0005.49
2022-07-18 02:21:00,,0827.7,5.01,0.00,29.4,27.9,00.0,37.9,31.4,26.5,0000.0,0014.77,0006.63,0005.52
2022-07-18 02:22:00,,0827.7,5.00,0.00,29.4,27.2,00.0,37.9,31.3,26.5,0000.0,0014.58,0006.64,0005.55
2022-07-18 02:23:00,,0827.7,4.99,0.00,29.3,27.0,00.0,37.9,31.2,26.6,0000.0,0014.33,0006.67,0005.60
2022-07-18 02:24:00,,0827.7,5.00,0.00,29.3,27.1,00.0,37.9,31.1,26.7,0000.0,0014.91,0006.67,0005.61
2022-07-18 02:25:00,,0827.7,5.02,0.00,29.2,27.3,00.0,37.9,31.0,26.9,0000.0,0014.96,0006.67,0005.60
2022-07-18 02:26:00,,0827.7,4.99,0.00,29.2,27.5,00.0,37.9,31.1,27.0,0000.0,0014.83,0006.66,0005.60
2022-07-18 02:27:00,,0827.7,5.00,0.00,29.3,27.7,00.0,37.9,31.2,27.0,0000.0,0016.48,0006.71,0005.60
2022-07-18 02:28:00,,0827.7,5.02,0.00,29.3,27.9,00.0,38.0,31.2,27.2,0000.0,0017.00,0006.72,0005.59
2022-07-18 02:29:00,,0827.7,5.00,0.00,29.3,28.1,00.0,38.0,31.3,27.1,0000.0,0017.16,0006.73,0005.56
2022-07-18 02:30:00,,0827.8,4.99,0.00,29.4,28.2,00.0,38.0,31.4,27.2,0000.0,0016.60,0006.67,0005.55
2022-07-18 02:31:00,,0827.7,5.00,0.00,29.4,27.6,00.0,37.9,31.3,27.1,0000.0,0016.56,0006.65,0005.53
2022-07-18 02:32:00,,0827.7,5.00,0.00,29.4,27.0,00.0,37.9,31.2,27.2,0000.0,0016.70,0006.60,0005.51
2022-07-18 02:33:00,,0827.7,5.00,0.00,29.3,27.0,00.0,37.9,31.1,27.1,0000.0,0016.44,0006.61,0005.48
2022-07-18 02:34:00,,0827.8,5.02,0.00,29.3,27.1,00.0,37.9,31.0,27.2,0000.0,0016.77,0006.56,0005.43
2022-07-18 02:35:00,,0827.9,4.99,0.00,29.2,27.3,00.0,37.9,31.0,27.3,0000.0,0016.18,0006.52,0005.39
2022-07-18 02:36:00,,0827.9,4.99,0.00,29.2,27.5,00.0,37.9,31.1,27.2,0000.0,0016.86,0006.52,0005.37
2022-07-18 02:37:00,,0827.8,5.00,0.00,29.3,27.7,00.0,37.9,31.2,27.2,0000.0,0017.58,0006.47,0005.35
2022-07-18 02:38:00,,0827.8,4.99,0.00,29.3,27.9,00.0,38.0,31.2,27.2,0000.0,0015.97,0006.39,0005.32
2022-07-18 02:39:00,,0827.9,5.01,0.00,29.3,28.1,00.0,38.0,31.3,27.1,0000.0,0015.76,0006.34,0005.28
2022-07-18 02:40:00,,0827.9,4.99,0.00,29.4,28.2,00.0,38.0,31.4,27.0,0000.0,0015.57,0006.29,0005.24
2022-07-18 02:41:00,,0827.8,5.01,0.00,29.4,27.6,00.0,37.9,31.3,27.0,0000.0,0015.62,0006.25,0005.22
2022-07-18 02:42:00,,0827.8,5.00,0.00,29.4,27.1,00.0,37.9,31.2,27.1,0000.0,0015.48,0006.23,0005.20
2022-07-18 02:43:00,,0827.9,5.01,0.00,29.3,26.9,00.0,37.9,31.1,27.1,0000.0,0014.93,0006.22,0005.18
2022-07-18 02:44:00,,0827.8,5.00,0.00,29.3,27.0,00.0,37.9,31.0,27.2,0000.0,0014.67,0006.16,0005.14
2022-07-18 02:45:00,,0827.9,4.99,0.00,29.2,27.2,00.0,37.9,31.0,27.2,0000.0,0013.97,0006.12,0005.09
2022-07-18 02:46:00,,0827.9,5.00,0.00,29.2,27.4,00.0,37.9,31.1,27.2,0000.0,0013.96,0006.09,0005.04
2022-07-18 02:47:00,,0827.9,4.99,0.00,29.3,27.7,00.0,37.9,31.1,27.2,0000.0,0013.04,0006.01,0004.98
2022-07-18 02:48:00,,0827.9,5.00,0.00,29.3,27.9,00.0,38.0,31.2,27.2,0000.0,0012.22,0006.00,0004.92
2022-07-18 02:49:00,,0828.0,4.99,0.00,29.3,28.1,00.0,38.0,31.3,27.1,0000.0,0011.93,0005.92,0004.86
2022-07-18 02:50:00,,0828.0,5.00,0.00,29.4,28.3,00.0,38.0,31.4,27.0,0000.0,0012.09,0005.89,0004.82
2022-07-18 02:51:00,,0828.0,4.98,0.00,29.4,28.2,00.0,38.0,31.4,26.9,0000.0,0012.59,0005.84,0004.78
2022-07-18 02:52:00,,0827.9,5.01,0.00,29.4,27.6,00.0,38.0,31.4,26.9,0000.0,0012.46,0005.81,0004.74
2022-07-18 02:53:00,,0827.9,4.99,0.00,29.4,27.1,00.0,37.9,31.3,27.0,0000.0,0012.33,0005.73,0004.68
2022-07-18 02:54:00,,0828.0,4.99,0.00,29.3,27.1,00.0,37.9,31.1,27.1,0000.0,0011.98,0005.63,0004.62
2022-07-18 02:55:00,,0828.0,4.99,0.00,29.3,27.2,00.0,37.9,31.0,27.2,0000.0,0011.84,0005.59,0004.58
2022-07-18 02:56:00,,0828.0,5.00,0.00,29.3,27.4,00.0,37.9,31.1,27.2,0000.0,0011.85,0005.53,0004.55
2022-07-18 02:57:00,,0828.0,5.00,0.00,29.3,27.6,00.0,38.0,31.1,27.2,0000.0,0012.27,0005.48,0004.52
2022-07-18 02:58:00,,0828.0,4.99,0.00,29.3,27.8,00.0,38.0,31.2,27.2,0000.0,0013.13,0005.45,0004.49
2022-07-18 02:59:00,,0828.0,5.01,0.00,29.3,28.0,00.0,38.0,31.3,27.2,0000.0,0012.99,0005.39,0004.47
